Location: Astronomy Club of Akron Observatory
(40.9700°N, 81.5606°W)
Time: 12:27:04
(UTC-04:00)

Hubble Space Telescope - Pass Details

Date: 15 June 2018
Orbit: 537 x 541 km, 28.5° (Epoch: 21 June)

Event Time Altitude Azimuth Distance (km) Brightness Sun altitude
Rises 22:58:21 0° 244° (WSW) 2,671 4.4 -17.0°
Reaches altitude 10° 23:01:45 10° 215° (SW) 1,779 3.2 -17.4°
Enters shadow 23:01:55 10° 212° (SSW) 1,752 3.2 -17.4°
